Location: Dzierzno
(50.6159°N, 19.2852°E)
Time: 07:37:08
(UTC+00:00)

Cosmos 407 Rocket - Pass Details

Date: 18 November 2025
Orbit: 740 x 780 km, 74.0° (Epoch: 06 December)

Event Time Altitude Azimuth Distance (km) Brightness Sun altitude
Rises 16:24:08 0° 202° (SSW) 3,205 7.2 -14.3°
Reaches altitude 10° 16:26:30 10° 203° (SSW) 2,278 6.4 -14.6°
Maximum altitude 16:31:40 89° 291° (WNW) 757 3.4 -15.4°
Drops below altitude 10° 16:36:50 10° 24° (NNE) 2,271 5.6 -16.2°
Enters shadow 16:36:59 - 24° (NNE) 2,329 5.7 -16.2°
